CW4226 Weather Reports


Display with metric or nautical units.
time (UTC)temp
F
wind
direction
speed
MPH
gust
MPH
rain 1hr
in
rain 24hr
in
rain mn
in
humidity
%
barometer
mb
20260903171507 83 244 1.0 3.0 0.00 1.05 0.25 63 1008.4
20260903171025 83 228 0.0 2.0 0.00 0.25 0.25 61 1010.2
20260903170523 83 238 4.0 6.0 0.00 0.25 0.25 65 1010.3
20260903170020 82 8 2.0 4.0 0.00 0.25 0.25 65 1010.4
20260903170007 81 299 1.0 3.0 0.00 1.05 0.25 67 1008.6
20260903165516 81 225 2.0 5.0 0.00 0.25 0.25 69 1010.4
20260903165012 82 231 5.0 5.0 0.00 0.25 0.25 67 1010.4
20260903164512 81 60 1.0 3.0 0.00 0.25 0.25 69 1010.6
20260903164007 81 232 3.0 5.0 0.00 0.25 0.25 72 1011.1
20260903163502 82 220 2.0 3.0 0.00 0.25 0.25 66 1010.8
20260903163008 81 257 1.0 3.0 0.00 1.05 0.25 69 1009.0
20260903162958 81 323 0.0 3.0 0.00 0.25 0.25 66 1010.9
20260903162455 81 114 2.0 3.0 0.00 0.25 0.25 69 1010.7
20260903161950 81 107 1.0 3.0 0.00 0.25 0.25 66 1011.0
20260903161445 80 237 1.0 2.0 0.00 0.25 0.25 68 1011.2
20260903160942 80 253 1.0 4.0 0.00 0.25 0.25 69 1011.1
20260903160440 80 86 0.0 4.0 0.00 0.25 0.25 69 1011.1
20260903160007 79 221 1.0 3.0 0.00 1.05 0.25 73 1009.5
20260903155939 80 35 0.0 3.0 0.00 0.25 0.25 70 1011.4
20260903155439 79 283 1.0 4.0 0.00 0.25 0.25 71 1011.6
20260903154935 79 241 1.0 2.0 0.00 0.25 0.25 71 1011.6
20260903154506 78 257 1.0 3.0 0.00 1.05 0.25 75 1009.8
20260903154431 78 198 0.0 2.0 0.00 0.25 0.25 72 1011.4
20260903153926 78 212 1.0 4.0 0.00 0.25 0.25 69 1011.6
20260903153422 77 42 2.0 2.0 0.00 0.25 0.25 73 1011.7
20260903153007 78 246 2.0 3.0 0.00 1.05 0.25 74 1009.9
20260903152918 78 248 3.0 3.0 0.00 0.25 0.25 75 1011.9
20260903152414 78 221 0.0 2.0 0.00 0.25 0.25 71 1011.8
20260903151914 79 282 1.0 2.0 0.00 0.25 0.25 72 1011.8
20260903151506 77 58 0.0 2.0 0.00 1.05 0.25 75 1010.1
20260903151409 78 45 2.0 2.0 0.00 0.25 0.25 70 1012.0
20260903150910 78 49 0.0 2.0 0.00 0.25 0.25 74 1011.9
20260903150404 77 89 0.0 2.0 0.00 0.25 0.25 74 1011.9
20260903150007 75 123 1.0 3.0 0.00 1.05 0.25 78 1010.1
20260903145859 76 78 2.0 3.0 0.00 0.25 0.25 74 1011.8
20260903145354 75 10 1.0 2.0 0.00 0.25 0.25 77 1011.7
20260903144853 76 265 1.0 2.0 0.00 0.25 0.25 77 1011.8
20260903144507 73 95 0.0 2.0 0.00 1.05 0.25 82 1010.1
20260903144349 75 129 0.0 2.0 0.00 0.25 0.25 77 1011.7
20260903143844 75 70 0.0 2.0 0.00 0.25 0.25 79 1011.8
20260903143341 74 115 2.0 2.0 0.00 0.25 0.25 80 1012.0
20260903143007 72 147 1.0 2.0 0.00 1.05 0.25 89 1010.4
20260903142841 73 251 1.0 2.0 0.00 0.25 0.25 83 1012.2
20260903142337 73 87 1.0 2.0 0.00 0.25 0.25 85 1012.3
20260903141833 72 274 0.0 2.0 0.00 0.25 0.25 85 1012.5
20260903141507 71 288 0.0 2.0 0.00 1.05 0.25 91 1010.6
20260903141329 72 37 2.0 2.0 0.00 0.25 0.25 87 1012.3
20260903140824 71 36 1.0 2.0 0.00 0.25 0.25 89 1012.2
20260903140319 70 68 1.0 2.0 0.00 0.25 0.25 90 1012.3
20260903140007 70 257 0.0 2.0 0.00 1.05 0.25 92 1010.7
20260903135815 70 127 0.0 1.0 0.00 0.25 0.25 89 1012.5
20260903135310 70 323 0.0 1.0 0.00 0.25 0.25 89 1012.1
20260903134809 70 111 0.0 1.0 0.00 0.25 0.25 89 1012.3
20260903134507 69 254 0.0 2.0 0.00 1.05 0.25 92 1010.5
20260903134304 70 229 0.0 1.0 0.00 0.25 0.25 89 1012.2
20260903133802 70 16 0.0 3.0 0.00 0.25 0.25 90 1012.2
20260903133258 69 117 0.0 2.0 0.00 0.25 0.25 91 1012.3
20260903133007 69 244 0.0 2.0 0.00 1.05 0.25 94 1010.4
20260903132758 69 269 0.0 2.0 0.00 0.25 0.25 91 1011.9
20260903132254 69 231 1.0 2.0 0.00 0.25 0.25 91 1012.0
20260903131748 69 234 1.0 1.0 0.00 0.25 0.25 90 1012.0
20260903131507 68 160 0.0 1.0 0.00 1.05 0.25 94 1010.3
20260903131247 69 19 0.0 1.0 0.00 0.25 0.25 91 1012.0
20260903130742 69 73 0.0 1.0 0.00 0.25 0.25 90 1012.0
20260903130237 69 217 0.0 2.0 0.00 0.25 0.25 90 1011.9
20260903130006 68 160 0.0 1.0 0.00 1.05 0.25 95 1010.2
20260903125735 69 261 0.0 1.0 0.00 0.25 0.25 90 1011.9
20260903125231 69 89 0.0 1.0 0.00 0.25 0.25 91 1011.9
20260903124730 69 233 0.0 2.0 0.00 0.25 0.25 92 1012.0
20260903124507 68 160 0.0 1.0 0.00 1.05 0.25 97 1010.3
20260903124226 69 235 0.0 1.0 0.00 0.25 0.25 92 1012.0
20260903123724 69 74 0.0 1.0 0.09 0.25 0.25 91 1012.1
20260903123224 69 62 0.0 2.0 0.09 0.25 0.25 92 1011.8
20260903123007 67 160 0.0 1.0 0.00 1.05 0.25 98 1010.2
20260903122723 69 333 0.0 0.0 0.00 0.23 0.23 93 1012.1
20260903122218 69 30 0.0 1.0 0.00 0.23 0.23 97 1012.1
20260903121716 68 69 0.0 1.0 0.00 0.23 0.23 98 1012.0
20260903121507 67 159 0.0 1.0 0.00 1.05 0.25 98 1010.2
20260903121213 67 23 1.0 2.0 0.00 0.23 0.23 98 1012.0
20260903120712 66 65 0.0 1.0 0.00 0.23 0.23 97 1011.9
20260903120206 66 25 0.0 1.0 0.00 0.23 0.23 98 1011.7
20260903120007 66 159 0.0 1.0 0.00 1.05 0.25 98 1009.9
20260903115705 66 58 0.0 2.0 0.00 0.23 0.23 98 1011.3
20260903115201 66 51 1.0 2.0 0.00 0.23 0.23 97 1011.3
20260903114701 66 47 0.0 2.0 0.00 0.23 0.23 97 1011.4
20260903114506 66 159 0.0 1.0 0.00 1.05 0.25 98 1009.6
20260903114156 66 64 1.0 1.0 0.00 0.23 0.23 97 1011.3
20260903113651 66 57 2.0 2.0 0.00 0.23 0.23 97 1011.6
20260903113147 66 85 1.0 2.0 0.00 0.23 0.23 97 1010.9
20260903113008 66 159 0.0 1.0 0.00 1.05 0.25 98 1009.7
20260903112644 66 30 1.0 1.0 0.00 0.23 0.23 97 1011.3
20260903112144 66 113 0.0 1.0 0.00 0.23 0.23 97 1011.2
20260903111643 66 5 0.0 1.0 0.00 0.23 0.23 97 1010.9
20260903111506 66 159 0.0 1.0 0.01 1.05 0.25 97 1009.3
20260903111138 65 50 0.0 1.0 0.00 0.23 0.23 97 1011.0
20260903110634 65 58 2.0 2.0 0.00 0.23 0.23 97 1011.0
20260903110130 65 72 0.0 1.0 0.00 0.23 0.23 97 1010.7
20260903110007 66 159 0.0 2.0 0.01 1.05 0.25 97 1009.1
20260903105624 65 269 0.0 2.0 0.00 0.23 0.23 97 1010.9
20260903105120 66 55 0.0 2.0 0.00 0.23 0.23 96 1010.8
20260903104619 66 85 1.0 2.0 0.02 0.23 0.23 96 1010.9
20260903104507 66 153 0.0 2.0 0.01 1.05 0.25 96 1009.3
20260903104115 66 79 1.0 2.0 0.02 0.23 0.23 96 1011.0
20260903103610 66 52 2.0 3.0 0.00 0.23 0.23 95 1011.3
20260903103107 66 50 0.0 2.0 0.00 0.23 0.23 95 1011.6
20260903103009 66 238 0.0 0.0 0.01 1.05 0.25 96 1009.7
20260903102602 66 99 0.0 2.0 0.02 0.23 0.23 94 1011.3
20260903102101 66 18 1.0 2.0 0.02 0.23 0.23 94 1012.1
20260903101601 67 68 1.0 2.0 0.00 0.22 0.22 93 1011.8
20260903101507 66 238 0.0 3.0 0.00 1.04 0.24 95 1010.0
20260903101056 67 88 0.0 2.0 0.00 0.22 0.22 93 1011.8
20260903100556 66 230 2.0 2.0 0.00 0.22 0.22 94 1011.8
20260903100055 67 228 3.0 4.0 0.00 0.22 0.22 93 1012.4
20260903095553 67 130 0.0 1.0 0.00 0.22 0.22 93 1012.6
20260903095048 66 55 0.0 2.0 0.00 0.22 0.22 93 1012.2
20260903094548 66 217 0.0 3.0 0.00 0.22 0.22 94 1012.1
20260903094506 66 246 1.0 3.0 0.00 1.04 0.24 96 1010.4
20260903094044 66 230 0.0 3.0 0.00 0.22 0.22 95 1011.8
20260903093544 66 225 2.0 3.0 0.00 0.22 0.22 95 1011.8
20260903093040 66 62 0.0 2.0 0.00 0.22 0.22 94 1012.1
20260903093007 66 186 0.0 1.0 0.00 1.04 0.24 96 1010.3
20260903092540 66 23 0.0 2.0 0.00 0.22 0.22 94 1012.0
20260903092040 66 94 0.0 1.0 0.00 0.22 0.22 94 1012.1
20260903091538 66 74 2.0 3.0 0.00 0.22 0.22 94 1012.2
20260903091507 66 253 1.0 3.0 0.00 1.04 0.24 96 1010.6
20260903091032 66 48 0.0 2.0 0.00 0.22 0.22 95 1012.1
20260903090529 66 33 1.0 2.0 0.00 0.22 0.22 95 1011.9
20260903090027 66 59 0.0 2.0 0.00 0.22 0.22 94 1012.0
20260903090007 66 194 0.0 2.0 0.00 1.04 0.24 96 1010.4
20260903085525 66 78 0.0 2.0 0.00 0.22 0.22 94 1012.2
20260903085021 66 89 0.0 2.0 0.00 0.22 0.22 93 1011.9
20260903084520 66 309 0.0 1.0 0.00 0.22 0.22 93 1011.8
20260903084508 66 248 0.0 5.0 0.00 1.04 0.24 94 1010.1
20260903084014 66 235 2.0 5.0 0.00 0.22 0.22 94 1011.7
20260903083511 66 232 4.0 6.0 0.00 0.22 0.22 95 1011.2
20260903083010 65 3 2.0 4.0 0.00 0.22 0.22 95 1011.2
20260903083006 66 15 1.0 3.0 0.00 1.04 0.24 95 1009.6
20260903082504 65 38 0.0 1.0 0.00 0.22 0.22 95 1011.3
20260903082000 66 49 1.0 2.0 0.00 0.22 0.22 94 1011.2
20260903081506 66 309 0.0 3.0 0.00 1.04 0.24 94 1010.0
20260903081455 66 58 1.0 2.0 0.00 0.22 0.22 93 1011.6
20260903080951 66 49 0.0 2.0 0.00 0.22 0.22 93 1011.6
20260903080447 66 252 4.0 4.0 0.00 0.22 0.22 92 1011.9
20260903080007 66 243 1.0 7.0 0.00 1.04 0.24 95 1010.2
20260903075943 66 101 0.0 7.0 0.00 0.22 0.22 93 1011.7
20260903075438 66 242 0.0 3.0 0.00 0.22 0.22 94 1011.6
20260903074933 66 234 4.0 4.0 0.00 0.22 0.22 93 1011.4
20260903074507 66 237 1.0 10.0 0.00 1.04 0.24 96 1009.9
20260903074432 66 99 1.0 4.0 0.00 0.22 0.22 93 1011.7
20260903073927 66 232 3.0 10.0 0.00 0.22 0.22 94 1011.3
20260903073422 66 232 7.0 8.0 0.00 0.22 0.22 97 1011.1
20260903073007 65 231 3.0 10.0 0.03 1.04 0.24 99 1009.4
20260903072918 65 230 4.0 5.0 0.00 0.22 0.22 98 1011.0
20260903072414 65 165 1.0 14.0 0.00 0.22 0.22 99 1011.1
20260903071911 64 246 4.0 4.0 0.00 0.22 0.22 98 1011.3
20260903071507 64 348 1.0 2.0 0.07 1.04 0.24 99 1009.6
20260903071407 64 72 0.0 2.0 0.00 0.22 0.22 98 1011.1
20260903070903 64 339 0.0 1.0 0.00 0.22 0.22 98 1010.9
20260903070357 64 80 0.0 3.0 0.00 0.22 0.22 98 1010.7
20260903070007 64 111 0.0 2.0 0.13 1.04 0.24 99 1009.6
20260903065851 64 26 0.0 2.0 0.00 0.22 0.22 98 1011.0
20260903065351 64 64 0.0 2.0 0.02 0.22 0.22 98 1011.0
20260903064850 64 103 2.0 2.0 0.02 0.22 0.22 98 1011.2
20260903064507 64 27 0.0 3.0 0.15 1.04 0.24 99 1009.7
20260903064346 64 10 2.0 2.0 0.05 0.22 0.22 98 1011.3
20260903063842 64 44 0.0 1.0 0.17 0.22 0.22 98 1011.6
20260903063336 64 7 2.0 3.0 0.14 0.20 0.20 98 1011.7
20260903063009 64 260 0.0 2.0 0.13 1.01 0.21 98 1010.2
20260903062833 64 352 0.0 2.0 0.14 0.19 0.19 98 1011.9
20260903062332 64 38 0.0 1.0 0.17 0.18 0.18 98 1012.2
20260903061829 64 348 0.0 1.0 0.24 0.17 0.17 98 1012.4
20260903061506 64 249 1.0 6.0 0.09 0.97 0.17 98 1011.2
20260903061327 64 230 4.0 6.0 0.24 0.15 0.15 98 1013.0
20260903060824 64 232 4.0 6.0 0.17 0.13 0.13 98 1013.3
20260903060322 64 6 2.0 4.0 0.12 0.11 0.11 98 1013.4
20260903055821 64 326 0.0 2.0 0.07 0.09 0.09 98 1013.8
20260903055319 64 60 0.0 1.0 0.02 0.09 0.09 98 1013.8
20260903054814 64 314 0.0 1.0 0.00 0.08 0.08 98 1013.4
20260903054314 64 44 0.0 2.0 0.00 0.08 0.08 98 1013.4
20260903053811 64 77 0.0 1.0 0.02 0.08 0.08 98 1012.9
20260903053306 64 255 2.0 2.0 0.02 0.08 0.08 98 1013.1
20260903053008 64 260 1.0 3.0 0.04 0.88 0.08 98 1011.4
20260903052801 64 326 0.0 3.0 0.00 0.08 0.08 98 1013.1
20260903052257 64 249 3.0 4.0 0.00 0.08 0.08 98 1013.3
20260903051752 64 246 3.0 3.0 0.00 0.08 0.08 98 1013.2
20260903051507 64 204 0.0 1.0 0.08 0.88 0.08 98 1011.7
20260903051248 64 10 0.0 1.0 0.00 0.08 0.08 98 1013.2
20260903050743 64 230 0.0 2.0 0.02 0.08 0.08 98 1013.3
20260903050242 64 68 1.0 2.0 0.17 0.08 0.08 98 1013.3
20260903050006 64 204 0.0 2.0 0.08 0.89 0.08 98 1011.8
20260903045737 64 92 0.0 2.0 0.17 0.07 0.07 98 1013.4
20260903045233 64 247 1.0 2.0 0.00 0.05 0.05 98 1013.5
20260903044729 64 69 0.0 1.0 0.02 0.05 0.05 98 1014.0
20260903044507 64 180 0.0 1.0 0.05 0.86 0.05 98 1012.4
20260903044224 64 18 0.0 2.0 0.02 0.05 0.05 98 1014.3
20260903043721 64 61 0.0 2.0 0.12 0.04 0.04 98 1014.3
20260903043220 64 351 0.0 2.0 0.24 0.04 0.04 98 1014.6
20260903043008 64 180 0.0 1.0 0.04 0.85 0.04 98 1013.0
20260903042719 64 52 1.0 2.0 0.09 0.02 0.02 98 1014.6
20260903042214 64 77 1.0 2.0 0.00 0.00 0.00 98 1015.0
20260903041711 64 301 0.0 1.0 0.00 0.00 0.00 98 1014.5
20260903041507 64 180 0.0 1.0 0.00 0.81 0.00 98 1012.8
20260903041207 64 52 1.0 2.0 0.02 0.00 0.00 97 1014.1
20260903040706 64 83 0.0 2.0 0.02 0.00 0.00 97 1014.4
20260903040201 64 304 0.0 1.0 0.00 0.00 0.00 97 1014.3
20260903040009 64 180 0.0 1.0 0.01 0.81 0.00 97 1012.4
20260903035657 64 342 0.0 2.0 0.00 0.63 0.63 97 1013.6
20260903035154 64 328 0.0 1.0 0.00 0.63 0.63 97 1013.8
20260903034653 64 311 0.0 1.0 0.00 0.63 0.63 97 1013.6
20260903034506 64 180 0.0 2.0 0.04 0.81 0.81 97 1012.1
20260903034148 64 44 0.0 2.0 0.00 0.63 0.63 97 1013.7
20260903033644 64 142 0.0 2.0 0.00 0.63 0.63 97 1014.2
20260903033143 64 357 0.0 2.0 0.00 0.63 0.63 97 1014.4
20260903033008 65 221 1.0 2.0 0.43 0.81 0.81 97 1012.9
20260903032638 64 327 0.0 2.0 0.00 0.63 0.63 97 1014.4
20260903032134 64 81 2.0 2.0 0.00 0.63 0.63 97 1014.3
20260903031629 64 35 1.0 1.0 0.02 0.63 0.63 96 1014.3
20260903031124 64 15 0.0 2.0 0.05 0.63 0.63 96 1014.3
20260903030620 64 30 0.0 2.0 0.07 0.62 0.62 96 1014.5
20260903030115 64 87 1.0 2.0 0.02 0.61 0.61 96 1014.9
20260903030006 65 165 0.0 3.0 0.79 0.80 0.80 95 1013.4
20260903025610 65 62 1.0 3.0 0.09 0.61 0.61 96 1015.1
20260903025107 65 64 0.0 2.0 0.17 0.61 0.61 95 1015.1
20260903024606 66 227 1.0 5.0 0.59 0.59 0.59 95 1015.8
20260903024506 67 228 1.0 12.0 0.76 0.77 0.77 95 1014.3
20260903024100 66 341 0.0 4.0 1.42 0.56 0.56 96 1016.0
20260903023556 67 29 1.0 5.0 1.51 0.47 0.47 96 1016.2
20260903023051 67 349 3.0 4.0 1.09 0.30 0.30 95 1016.3
20260903023007 68 256 1.0 3.0 0.38 0.39 0.39 93 1014.6
20260903022551 67 269 0.0 2.0 1.13 0.20 0.20 93 1015.7
20260903022049 68 92 4.0 5.0 0.50 0.09 0.09 91 1015.0
20260903021544 68 49 0.0 1.0 0.00 0.01 0.01 89 1014.5
20260903021507 69 259 0.0 3.0 0.00 0.01 0.01 88 1012.8
20260903021039 68 245 2.0 2.0 0.00 0.01 0.01 88 1014.3
20260903020535 68 101 0.0 2.0 0.00 0.01 0.01 88 1014.3
20260903020035 68 294 0.0 3.0 0.00 0.01 0.01 88 1013.9
20260903020008 69 300 1.0 3.0 0.00 0.01 0.01 88 1012.2
20260903015530 69 49 0.0 2.0 0.00 0.01 0.01 88 1013.4
20260903015026 69 269 0.0 4.0 0.00 0.01 0.01 88 1013.5
20260903014525 69 76 1.0 5.0 0.00 0.01 0.01 88 1013.8
20260903014507 69 248 1.0 3.0 0.00 0.01 0.01 88 1012.0
20260903014020 69 51 0.0 3.0 0.00 0.01 0.01 88 1014.1
20260903013519 69 178 1.0 2.0 0.00 0.01 0.01 88 1013.8
20260903013014 69 271 0.0 4.0 0.00 0.01 0.01 88 1014.1
20260903013007 69 261 1.0 3.0 0.00 0.01 0.01 88 1012.2
20260903012513 69 81 0.0 2.0 0.00 0.01 0.01 88 1014.0
20260903012012 69 58 1.0 2.0 0.00 0.01 0.01 88 1014.1
20260903011507 69 146 1.0 2.0 0.00 0.01 0.01 88 1014.3
20260903011002 69 262 0.0 3.0 0.00 0.01 0.01 88 1014.4
20260903010457 69 99 0.0 2.0 0.00 0.01 0.01 88 1014.2
20260903010006 69 294 0.0 3.0 0.00 0.01 0.01 88 1012.2
20260903005955 69 85 2.0 2.0 0.00 0.01 0.01 88 1013.9
20260903005450 69 263 0.0 3.0 0.00 0.01 0.01 88 1013.3
20260903004947 69 248 2.0 3.0 0.00 0.01 0.01 88 1013.2
20260903004506 69 292 0.0 3.0 0.00 0.01 0.01 87 1011.1
20260903004446 69 85 0.0 2.0 0.00 0.01 0.01 87 1012.9
20260903003943 69 41 1.0 3.0 0.00 0.01 0.01 87 1012.9
20260903003442 69 237 2.0 4.0 0.00 0.01 0.01 87 1013.0
20260903002938 69 219 1.0 3.0 0.00 0.01 0.01 87 1013.1
20260903002432 69 50 1.0 2.0 0.00 0.01 0.01 87 1013.5
20260903001932 69 254 2.0 2.0 0.00 0.01 0.01 87 1013.5
20260903001432 69 104 0.0 2.0 0.00 0.01 0.01 87 1013.7
20260903000932 69 314 2.0 2.0 0.00 0.01 0.01 87 1013.6
20260903000427 69 65 0.0 3.0 0.00 0.01 0.01 87 1013.4
20260903000007 70 19 1.0 5.0 0.00 0.01 0.01 87 1011.7
20260902235925 70 89 0.0 3.0 0.00 0.01 0.01 87 1013.4
20260902235421 70 129 0.0 4.0 0.00 0.01 0.01 87 1013.5
20260902234920 70 60 1.0 2.0 0.00 0.01 0.01 87 1013.5
20260902234507 70 137 0.0 5.0 0.00 0.01 0.01 88 1011.7
20260902234416 70 13 1.0 2.0 0.00 0.01 0.01 87 1013.6
20260902233915 70 77 1.0 5.0 0.00 0.01 0.01 87 1013.5
20260902233409 70 217 0.0 4.0 0.00 0.01 0.01 87 1013.5
20260902233007 70 244 2.0 6.0 0.00 0.01 0.01 88 1011.2
20260902232908 70 249 1.0 6.0 0.00 0.01 0.01 88 1012.9
20260902232403 70 229 1.0 4.0 0.00 0.01 0.01 88 1012.6
20260902231902 70 353 2.0 2.0 0.00 0.01 0.01 88 1012.8
20260902231508 70 306 1.0 3.0 0.00 0.01 0.01 88 1011.1
20260902231357 70 129 0.0 3.0 0.00 0.01 0.01 88 1013.0
20260902230852 70 292 1.0 2.0 0.00 0.01 0.01 88 1012.8
20260902230352 70 219 0.0 5.0 0.00 0.01 0.01 87 1013.0
20260902230008 71 246 1.0 3.0 0.00 0.01 0.01 87 1011.2
20260902225851 70 231 5.0 5.0 0.00 0.01 0.01 87 1012.9
20260902225347 70 19 0.0 3.0 0.00 0.01 0.01 87 1013.0
20260902224845 71 50 1.0 5.0 0.00 0.01 0.01 87 1013.2
20260902224340 71 44 0.0 2.0 0.00 0.01 0.01 86 1013.3
20260902223837 71 65 2.0 5.0 0.00 0.01 0.01 86 1013.1
20260902223337 71 14 2.0 2.0 0.00 0.01 0.01 86 1013.0
20260902223008 72 310 1.0 3.0 0.00 0.01 0.01 85 1011.3
20260902222837 71 32 1.0 2.0 0.00 0.01 0.01 86 1013.1
20260902222335 71 69 2.0 4.0 0.00 0.01 0.01 85 1013.0
20260902221830 72 307 1.0 3.0 0.00 0.01 0.01 85 1013.2
20260902221506 72 51 0.0 3.0 0.00 0.01 0.01 85 1011.4
20260902221329 72 29 3.0 3.0 0.00 0.01 0.01 85 1013.1
20260902220825 72 5 1.0 3.0 0.00 0.01 0.01 85 1013.2
20260902220324 72 343 0.0 2.0 0.00 0.01 0.01 85 1013.3
20260902220007 72 261 1.0 3.0 0.00 0.01 0.01 85 1011.7
20260902215821 72 8 0.0 2.0 0.00 0.01 0.01 85 1013.5
20260902215320 72 29 2.0 2.0 0.00 0.01 0.01 85 1013.4
20260902214816 72 240 3.0 4.0 0.00 0.01 0.01 85 1013.6
20260902214315 72 97 0.0 3.0 0.00 0.01 0.01 85 1013.4
20260902213811 72 267 0.0 2.0 0.00 0.01 0.01 85 1013.5
20260902213306 72 115 1.0 2.0 0.00 0.01 0.01 85 1013.7
20260902213007 72 245 1.0 3.0 0.00 0.01 0.01 86 1012.0
20260902212804 71 75 0.0 2.0 0.00 0.01 0.01 86 1014.0
20260902212305 71 70 0.0 3.0 0.00 0.01 0.01 85 1013.8
20260902211758 72 269 0.0 2.0 0.00 0.01 0.01 85 1013.7
20260902211506 72 13 1.0 3.0 0.00 0.01 0.01 85 1012.1
20260902211253 72 89 1.0 2.0 0.00 0.01 0.01 85 1013.6
20260902210753 72 348 1.0 2.0 0.00 0.01 0.01 85 1013.8
20260902210248 72 54 1.0 3.0 0.00 0.01 0.01 85 1013.8
20260902205746 72 236 0.0 3.0 0.00 0.01 0.01 85 1013.6
20260902205242 72 31 0.0 2.0 0.00 0.01 0.01 84 1013.5
20260902204737 72 34 0.0 2.0 0.00 0.01 0.01 85 1013.7
20260902204507 72 256 1.0 3.0 0.00 0.01 0.01 85 1011.7
20260902204232 72 250 3.0 3.0 0.00 0.01 0.01 86 1013.6
20260902203732 71 4 0.0 1.0 0.00 0.01 0.01 85 1013.6
20260902203228 72 250 0.0 2.0 0.00 0.01 0.01 85 1013.8
20260902203008 72 227 0.0 2.0 0.00 0.01 0.01 86 1012.1
20260902202728 72 102 0.0 2.0 0.00 0.01 0.01 86 1013.6
20260902202224 71 67 0.0 2.0 0.00 0.01 0.01 86 1013.5
20260902201721 71 66 1.0 3.0 0.00 0.01 0.01 86 1013.8
20260902201508 71 258 0.0 2.0 0.00 0.01 0.01 86 1012.3
20260902201219 71 256 0.0 3.0 0.00 0.01 0.01 86 1014.2
20260902200715 71 352 0.0 2.0 0.00 0.01 0.01 86 1014.1
20260902200211 71 62 0.0 2.0 0.00 0.01 0.01 86 1014.5
20260902200007 72 251 1.0 2.0 0.00 0.01 0.01 85 1012.8
20260902195706 72 61 1.0 3.0 0.00 0.01 0.01 84 1014.5
20260902195205 72 68 1.0 2.0 0.00 0.01 0.01 85 1014.5
20260902194704 72 66 2.0 2.0 0.00 0.01 0.01 84 1014.5
20260902194507 71 316 0.0 3.0 0.00 0.01 0.01 86 1012.8
20260902194200 72 305 1.0 2.0 0.00 0.01 0.01 84 1014.6
20260902193655 71 180 0.0 2.0 0.00 0.01 0.01 85 1014.5
20260902193151 71 260 0.0 3.0 0.00 0.01 0.01 85 1014.6
20260902193008 71 250 0.0 2.0 0.00 0.01 0.01 87 1012.8
20260902192649 71 193 0.0 3.0 0.00 0.01 0.01 87 1014.4
20260902192148 71 250 1.0 3.0 0.00 0.01 0.01 87 1014.4
20260902191643 71 241 2.0 2.0 0.00 0.01 0.01 87 1014.4
20260902191507 71 232 1.0 3.0 0.00 0.01 0.01 88 1012.8
20260902191143 71 205 0.0 2.0 0.00 0.01 0.01 87 1014.5
20260902190639 71 87 0.0 2.0 0.00 0.01 0.01 87 1014.4
20260902190134 71 309 2.0 3.0 0.00 0.01 0.01 87 1014.5
20260902190008 70 270 1.0 6.0 0.00 0.01 0.01 89 1012.8
20260902185629 70 43 1.0 2.0 0.00 0.01 0.01 88 1014.5
20260902185125 70 62 2.0 6.0 0.00 0.01 0.01 88 1014.3
20260902184620 70 291 2.0 3.0 0.00 0.01 0.01 88 1014.4
20260902184507 70 231 1.0 3.0 0.00 0.01 0.01 89 1012.7
20260902184115 70 286 2.0 2.0 0.00 0.01 0.01 88 1014.4
20260902183612 70 23 2.0 2.0 0.00 0.01 0.01 88 1014.4
20260902183108 70 0 0.0 2.0 0.00 0.01 0.01 88 1014.5
20260902183008 70 317 2.0 6.0 0.00 0.01 0.01 88 1012.9
20260902182604 70 99 0.0 3.0 0.00 0.01 0.01 89 1014.6
20260902182100 70 58 0.0 4.0 0.00 0.01 0.01 88 1014.4
20260902181556 70 24 4.0 4.0 0.00 0.01 0.01 88 1014.6
20260902181507 70 298 1.0 3.0 0.00 0.01 0.01 88 1013.0
20260902181055 70 70 1.0 2.0 0.00 0.01 0.01 88 1014.9
20260902180555 70 199 1.0 3.0 0.00 0.01 0.01 88 1015.2
20260902180051 70 312 0.0 2.0 0.00 0.01 0.01 88 1015.4
20260902180008 71 283 1.0 3.0 0.00 0.01 0.01 88 1013.5
20260902175551 70 84 0.0 2.0 0.00 0.01 0.01 88 1015.2
20260902175047 71 220 0.0 2.0 0.00 0.01 0.01 88 1015.2
20260902174543 71 57 2.0 3.0 0.00 0.01 0.01 87 1015.3
20260902174038 71 78 0.0 2.0 0.00 0.01 0.01 87 1015.3
20260902173538 71 36 0.0 2.0 0.00 0.01 0.01 87 1015.4
20260902173033 71 75 1.0 3.0 0.00 0.01 0.01 88 1015.6
20260902173008 71 86 0.0 3.0 0.00 0.01 0.01 88 1013.8
20260902172532 71 10 0.0 2.0 0.00 0.01 0.01 88 1015.7
20260902172028 71 269 0.0 2.0 0.00 0.01 0.01 88 1015.5